Regional Weather Roundup
Issued by NWS New Orleans/Baton Rouge, LA

Home | Current Version | Previous Version | Graphics & Text | Print | Product List | Glossary On
Versions: 1 2 3 4 5 6 7 8 9 10 11 12 13 14 15 16 17 18 19 20 21 22 23 24 25 26 27 28 29 30 31 32 33 34 35 36 37 38 39 40 41 42 43 44 45 46 47 48 49 50
576
ASUS44 KLIX 172308
RWRLIX
NEW ORLEANS REGIONAL WEATHER ROUNDUP
NATIONAL WEATHER SERVICE NEW ORLEANS LA
600 PM CDT FRI APR 17 2015

NOTE: "FAIR" INDICATES FEW OR NO CLOUDS BELOW 12,000 FEET WITH NO
      SIGNIFICANT WEATHER AND/OR OBSTRUCTIONS TO VISIBILITY.
      SKY/WX - SKY CONDITION AND SIGNIFICANT WEATHER.
      TMP - AIR TEMPERATURE.     DP    - DEWPOINT TEMPERATURE.
      RH  - RELATIVE HUMIDITY.   PRES  - PRESSURE.
      HI  - HEAT INDEX.          WCI   - WIND CHILL INDEX.

*  THESE STATIONS ARE NOT NWS OR FAA STATIONS AND ARE NOT UNDER
   NWS QUALITY CONTROL.

LAZ038-040-048-061>063-065>067-069-180000-
SOUTHEAST LOUISIANA

CITY           SKY/WX    TMP DP  RH WIND       PRES   REMARKS
N.O. AUDUBON     N/A     82  73  76 MISG        N/A
N.O. INTL ARPT PTSUNNY   81  68  64 S6        29.91R
N.O. LAKEFRONT PTSUNNY   82  70  66 CALM      29.92R
SLIDELL        MOSUNNY   80  71  74 SW7       29.90R
BATON ROUGE    PTSUNNY   81  66  60 MISG      29.91R
BOOTHVILLE     MOSUNNY   78  71  79 SW6       29.93F
BELLE CHASSE   PTSUNNY   79  69  71 SW6       29.91R
BOGALUSA*        N/A     83  66  55 W3        29.91R
GALLIANO*      PTCLDY    82  69  66 MISG      29.93R
NEW ROADS*       N/A     80  67  64 NW5       29.92R
GONZALES*        N/A     81  70  69 SW3       29.91R
HAMMOND*       PTSUNNY   82  64  54 W3        29.92R
HOUMA*         MOSUNNY   81  70  69 W6        29.92R
PORT FOURCHON* PTCLDY    81  70  69 CALM      29.97R

$$

MSZ070-080>082-180000-
SOUTHERN MISSISSIPPI

CITY           SKY/WX    TMP DP  RH WIND       PRES   REMARKS
MCCOMB         PTSUNNY   81  66  60 W6        29.91R
GULFPORT       MOSUNNY   79  70  74 SW6       29.89S
BILOXI         SUNNY     78  73  84 SW13      29.90S
PASCAGOULA     MOSUNNY   78  71  79 SW7       29.90F
STENNIS ARPT*  MOSUNNY   81  66  61 MISG      29.90S

$$

COASTAL OBSERVATIONS
LAKE AND NEARSHORE STATIONS

STATION/POSITION TIME  TEMP    WIND        PRES    WAVE
                       AIR SEA DIR/SP/G            HT/PER
                 (UTC) (F)     (DEG/KT/KT) (MB)    (FT/S)
PASCAGOULA       2200   77     230/  9/ 11 1012.7
WAVELAND YACHT   2200   82 74  220/  6/  8 1012.5
GRAND ISLE       2212   78 77  140/  4/  6 1013.2
SOUTHWEST PASS   2212   82 63  310/  3/  4 1014.0
NEW CANAL        2212   78     360/  5/  5 1012.9
SHELL BEACH      2200   79 76  220/  9/ 11 1012.3

OFFSHORE STATIONS

STATION/POSITION TIME  TEMP    WIND        PRES    WAVE
                       AIR SEA DIR/SP/G            HT/PER
                 (UTC) (F)     (DEG/KT/KT) (MB)    (FT/S)
64 S DAUPHIN ISL 2250   76 76  260/ 10/ 12 1013.5    4/ 6

$$




USA.gov is the U.S. government's official web portal to all federal, state and local government web resources and services.